User: anonymous
Location: Caltech
(34.1382°N, 118.1253°W)
Time: 13:29:22
(UTC-07:00)
Language:

Cosmos 1937 Rocket - Orbit

View from above orbital plane
View from above orbital plane
View from above satellite
View from above satellite

Ground track
Ground track

The orbit data is extracted from the following two-line orbital elements,

1 19039U 88029B   14208.77865641  .00000032  00000-0  19067-4 0   834
2 19039 074.0480 082.5872 0023481 159.5964 265.0849 14.38015308379125
Epoch (UTC): 27 July 2014 18:41:15
Eccentricity: 0.0023481
inclination: 74.0480°
perigee height: 748 km
apogee height: 782 km
right ascension of ascending node: 82.5872°
argument of perigee: 159.5964°
revolutions per day: 14.38015308
mean anomaly at epoch: 265.0849°
orbit number at epoch: 37912

The dashed part of the orbit path shows where the satellite is in the earth's shadow,  

DLR